Temp
21 22 21 22 22 22 21 21 21 21 21 21 21 21 21 21 21 21 21 21 21 21 21 20 21 21 21 21 21 21 21 21 21 21 20 21 20 20 20 20 20 20 20
22 22 22 22 22 22 22 21 21 21 21 21 21 21 21 21 21 21 21 21 21 21 21 21 20 21 21 21 21 21 21 21 21 21 21 21 21 20 20 20 20 20 20
21 22 22 22 22 22 22 21 21 21 21 21 21 21 21 21 21 21 21 21 21 21 21 21 21 21 21 21 21 21 21 21 21 20 20 21 21 21 21 20 20 20 20
21 21 22 22 22 22 22 21 21 21 21 21 21 21 21 21 21 21 21 21 21 21 21 21 21 21 21 21 21 21 21 21 20 21 21 21 21 20 20 20 20 20 20
21 22 22 22 21 21 21 21 21 21 21 21 21 21 21 22 22 21 22 22 22 22 21 21 21 21 21 21 20 20 21 21 20 21 21 21 20 20 20 20 20 20 20
21 22 21 21 21 21 21 21 21 21 21 21 21 21 21 21 22 22 22 22 22 22 21 21 21 21 21 21 21 21 21 21 21 21 21 21 21 20 20 20 21 20 20
22 21 21 21 21 21 22 22 21 21 22 21 21 21 21 21 22 22 22 21 22 22 21 21 21 21 21 21 21 21 21 22 22 21 21 21 21 20 20 20 20 20 20
22 21 21 21 21 21 22 22 22 21 22 21 21 21 21 21 21 21 22 21 21 21 21 21 21 21 21 21 22 21 22 22 22 21 21 21 21 21 20 20 20 20 20
22 22 21 21 21 21 22 22 23 21 21 22 21 21 21 21 21 22 22 21 21 21 21 21 21 21 22 22 22 21 21 22 22 22 21 21 21 21 20 20 20 20 20
22 22 22 22 21 22 22 22 24 22 22 22 21 21 21 22 21 22 21 21 21 21 21 21 21 21 22 22 22 22 21 21 22 21 22 21 21 20 20 20 20 20 20
21 22 22 22 22 23 23 23 23 22 21 21 21 21 22 22 22 22 22 21 21 20 21 20 21 21 21 22 22 22 22 22 22 22 22 21 21 20 20 20 20 20 20
22 22 22 22 23 23 23 23 23 22 22 22 23 22 22 22 21 22 21 21 21 21 20 21 22 21 21 22 22 22 22 22 22 22 22 21 21 21 20 20 20 20 20
23 23 23 23 23 24 23 23 23 23 23 22 23 22 22 22 21 21 21 21 21 21 21 21 21 22 21 21 22 22 22 22 22 22 22 22 21 21 21 20 20 21 20
23 23 23 24 24 24 24 23 24 24 24 23 23 23 22 21 21 21 21 21 21 20 21 21 21 22 22 21 22 22 22 22 22 22 22 21 21 21 21 20 20 21 20
23 24 24 24 25 25 24 24 24 24 24 24 23 24 23 23 22 21 20 21 21 20 20 21 21 22 22 21 21 22 22 22 22 22 22 22 21 21 21 20 20 20 21
24 24 24 24 25 25 25 25 25 25 25 25 24 24 23 23 22 23 22 22 21 20 20 21 21 21 22 21 21 22 22 22 22 22 22 22 22 22 21 21 20 20 20
24 25 25 25 25 25 25 25 25 25 25 25 25 24 24 23 24 24 23 22 21 21 20 20 20 21 22 22 22 23 22 22 22 22 22 22 22 22 22 21 21 21 20
26 26 25 25 25 25 25 25 25 25 25 25 25 24 24 24 24 24 23 23 21 21 20 20 21 21 22 22 22 23 23 23 23 22 22 22 22 22 22 21 21 21 20
27 26 26 26 25 26 25 25 25 26 26 25 25 25 25 24 25 24 24 23 22 21 21 21 21 21 22 22 22 23 23 23 23 23 22 22 22 22 21 21 21 20 20
27 27 27 26 26 26 26 26 26 26 26 26 26 25 25 24 25 24 24 23 22 22 21 21 21 22 22 22 23 23 23 23 23 22 22 22 22 22 21 21 21 21 20
27 27 27 26 26 26 26 26 26 26 26 26 26 26 25 25 25 24 23 23 22 22 22 22 21 21 22 22 22 23 23 23 24 23 22 23 22 22 22 21 21 21 20
27 27 27 27 27 26 27 27 26 26 26 26 26 26 26 25 25 25 24 23 23 22 22 22 22 22 22 22 23 21 19 22 23 23 23 21 22 22 22 21 21 21 20
27 27 27 27 27 27 27 27 26 25 26 26 27 26 26 25 25 25 25 24 24 23 23 23 22 22 23 23 24 22 19 20 19 22 23 23 23 23 23 23 22 21 21
27 26 28 27 27 27 27 27 26 26 26 27 27 27 26 26 25 25 25 24 24 24 23 23 23 23 23 23 22 22 23 23 19 19 22 23 23 23 22 22 23 22 22
27 27 28 28 27 27 27 27 26 26 27 27 27 26 26 25 25 25 25 24 24 24 24 24 24 24 24 24 24 22 21 21 21 19 19 21 23 24 23 23 23 23 22
27 27 27 27 27 27 27 27 26 26 26 26 26 26 26 26 26 25 25 24 24 24 24 24 24 24 24 24 24 24 24 23 21 20 18 19 20 24 24 24 24 23 23
Height
818 819 820 820 820 820 820 822 823 824 824 823 823 824 824 826 826 827 828 828 829 830 831 832 832 832 832 832 833 833 833 834 835 836 836 837 838 838 839 840 842 844 845
815 817 819 820 820 821 821 823 824 825 825 825 825 826 826 826 828 828 829 830 831 831 833 834 835 835 835 835 836 837 838 838 838 840 841 842 842 843 844 845 846 847 848
815 816 818 820 821 821 822 824 826 826 825 825 826 827 828 829 830 831 832 832 832 833 834 836 837 837 837 838 838 840 841 841 842 843 844 845 846 847 848 849 850 850 851
816 817 819 820 821 822 823 825 826 826 826 827 827 828 829 828 831 833 834 835 835 835 836 837 839 839 839 840 840 841 843 844 846 846 847 848 849 850 851 852 853 853 854
817 819 821 822 823 823 824 826 826 828 828 829 829 830 830 830 830 832 834 836 837 837 838 838 840 841 841 842 842 843 844 846 847 849 849 850 851 852 853 854 856 856 856
819 820 822 824 824 824 826 827 828 829 829 830 831 831 832 832 831 832 834 836 837 838 839 840 841 842 843 844 844 845 845 846 848 850 851 852 852 853 855 856 857 859 860
820 822 824 825 825 825 825 827 829 830 829 831 833 832 833 833 833 833 835 836 837 840 839 840 842 843 844 846 846 846 847 847 848 850 852 854 855 855 856 857 859 860 861
820 823 824 825 825 826 826 828 829 830 831 833 833 833 834 835 835 835 835 837 838 839 840 841 842 843 844 846 847 848 848 848 849 851 852 854 856 857 857 859 860 862 863
822 823 824 826 826 828 828 829 828 830 831 832 834 834 834 835 835 836 837 838 839 840 841 841 843 843 844 846 848 850 849 850 851 852 854 855 857 858 859 861 862 863 865
822 824 825 826 827 828 829 829 829 830 831 832 834 835 835 835 835 836 837 839 840 841 842 842 843 844 845 846 848 850 851 852 853 854 854 856 858 859 861 862 863 864 864
824 825 826 826 828 829 828 829 829 830 832 834 835 836 836 835 835 835 837 838 840 842 843 844 844 845 845 846 848 849 850 851 852 854 856 857 858 860 862 863 864 865 865
824 826 827 827 828 828 828 829 829 831 833 833 835 836 835 836 835 835 837 838 839 841 843 844 845 845 846 846 848 849 849 850 852 855 856 857 859 861 862 863 864 865 866
824 827 827 828 828 828 828 830 830 832 834 835 834 835 835 834 835 834 835 836 838 839 840 842 843 845 846 847 847 849 850 851 852 854 856 857 859 860 862 863 865 866 867
825 827 828 828 827 828 829 830 832 833 834 834 833 833 832 832 833 833 833 834 836 837 838 840 842 844 845 847 849 850 851 851 852 853 854 856 858 860 862 863 864 865 866
825 827 828 827 826 827 829 830 831 831 831 832 831 831 831 830 830 830 830 831 833 834 836 838 841 843 845 847 848 849 849 850 851 852 853 854 856 857 859 861 862 863 864
822 826 826 826 826 827 827 828 829 829 830 830 830 830 830 829 829 828 828 829 830 831 833 836 839 841 844 846 847 848 848 849 850 850 851 853 853 855 857 858 860 862 863
823 825 825 826 826 827 827 827 828 829 829 829 828 828 827 827 827 827 827 827 828 829 830 833 836 838 842 845 846 847 848 848 849 848 849 850 851 852 853 855 857 858 860
822 822 824 826 826 826 826 827 828 828 828 828 827 826 825 826 826 826 825 825 827 828 829 831 834 836 840 843 844 846 846 846 846 847 847 847 848 850 851 852 854 855 856
818 820 820 823 825 825 826 827 827 827 827 828 828 827 825 825 825 826 824 824 825 827 829 831 833 836 838 841 842 844 844 844 844 844 845 846 847 848 849 850 852 851 853
815 817 818 820 823 825 825 825 825 825 826 827 827 826 827 826 826 825 824 824 823 825 827 830 832 834 837 838 841 842 842 842 841 841 842 843 844 845 846 847 848 849 851
811 813 815 818 820 823 823 822 823 824 824 824 824 825 825 826 826 825 825 824 825 825 826 829 832 834 837 838 840 840 839 838 837 838 838 839 839 841 842 844 845 847 849
807 810 813 816 819 820 821 820 822 823 823 822 821 823 824 826 826 826 825 825 825 825 827 830 832 834 835 837 838 838 839 835 833 834 835 835 836 838 839 841 842 844 846
802 805 809 812 815 818 820 820 821 822 821 821 820 820 822 824 826 825 825 825 825 825 826 827 830 833 833 835 835 836 839 838 832 829 830 831 831 831 833 836 838 840 841
797 801 805 808 812 814 817 819 819 820 819 820 820 820 820 822 823 824 825 825 825 824 826 826 829 831 833 833 833 833 832 831 831 831 826 826 827 828 829 831 832 834 836
794 798 802 806 809 811 813 815 817 818 817 818 818 818 819 820 821 822 822 823 824 824 823 824 826 829 831 831 828 828 828 829 829 830 831 825 825 824 825 827 829 831 832
793 798 803 805 806 809 810 812 814 816 817 817 817 817 818 819 819 820 821 823 823 823 823 823 824 825 825 826 826 825 824 826 824 826 828 825 825 820 820 821 823 824 826
Wind_Speed
15 15 13 11 10 12 12 11 12 14 15 18 18 18 18 16 15 14 14 14 13 12 10 11 10 10 12 13 16 17 18 19 18 18 19 19 18 18 20 20 20 20 19
21 19 16 12 11 12 12 11 11 12 13 14 17 15 15 14 14 14 15 16 16 14 12 12 12 12 14 15 16 17 18 18 17 17 18 18 18 18 19 19 18 19 19
21 20 17 13 13 13 13 11 11 11 12 14 15 15 15 14 12 13 14 15 15 14 12 12 12 13 13 14 15 16 17 18 17 15 16 18 17 16 17 17 17 17 18
21 19 18 16 14 15 16 13 12 10 11 13 14 15 13 16 12 11 12 12 13 13 12 11 12 11 13 14 14 16 16 15 15 14 16 19 16 15 16 16 16 16 17
20 18 16 16 15 15 14 14 13 11 11 11 13 13 12 12 13 11 10 10 10 12 13 12 11 11 12 12 14 16 17 15 13 14 17 16 17 15 15 15 14 15 15
18 19 17 15 15 16 14 13 12 12 12 11 11 12 12 10 12 10 10 9 9 9 12 12 11 9 9 13 15 16 16 13 8 14 15 15 14 14 14 15 15 13 13
19 18 16 15 15 15 15 14 12 11 12 11 10 11 11 10 10 9 7 8 8 7 9 11 10 9 9 10 10 10 11 9 12 16 15 14 15 16 15 15 15 14 13
20 18 17 15 15 15 14 13 12 10 11 10 9 10 9 8 7 7 7 6 7 7 6 7 8 8 9 8 7 10 8 11 18 17 14 16 16 15 14 15 14 14 13
18 18 16 15 14 13 13 13 11 10 10 8 8 9 10 8 7 6 7 6 5 5 6 6 7 7 8 8 6 6 8 15 18 15 14 16 14 13 14 13 12 14 13
17 17 17 16 15 14 12 12 11 10 9 8 7 7 8 9 9 8 6 6 5 5 4 4 5 6 6 7 7 7 7 11 11 14 14 15 13 13 14 14 14 14 13
14 16 16 16 15 14 13 12 10 9 8 7 6 7 7 5 9 8 7 7 7 5 4 3 5 5 6 7 7 6 7 10 10 13 14 14 14 13 13 13 13 13 12
14 15 16 15 15 15 14 12 12 10 9 7 5 7 5 9 8 9 4 9 8 5 6 7 5 5 5 7 7 5 2 12 12 10 12 13 13 12 13 13 13 12 12
16 14 15 14 14 13 13 12 12 10 8 7 8 9 10 12 5 5 13 5 11 10 10 10 7 6 6 6 8 8 7 10 11 12 12 12 13 13 12 11 11 11 11
15 18 15 14 12 10 11 11 10 9 9 10 10 11 14 14 13 10 9 14 10 9 13 14 9 8 8 7 8 9 10 11 8 11 12 12 12 12 11 12 13 14 12
15 17 19 17 14 11 13 15 11 12 14 15 13 14 16 13 11 9 9 7 9 10 13 15 11 12 11 8 9 10 10 12 10 12 12 14 15 14 14 14 14 14 14
17 20 18 18 16 14 14 15 12 8 6 9 15 14 13 12 10 7 5 7 8 10 12 15 14 12 13 10 7 9 12 12 11 11 14 16 16 16 15 16 15 16 16
20 21 21 21 18 14 10 10 10 8 6 6 7 10 6 6 5 5 5 7 9 9 10 12 13 14 14 11 9 7 12 13 15 13 13 18 17 19 18 17 18 18 18
20 23 22 22 21 17 16 14 13 10 6 6 9 7 4 4 3 4 3 5 9 9 12 11 12 15 14 13 11 10 11 13 14 17 16 17 19 19 19 19 19 20 21
24 24 23 25 25 21 17 15 11 12 9 7 6 6 5 4 1 2 1 4 9 12 13 14 14 15 15 15 13 12 12 14 16 17 20 18 18 19 20 19 16 18 22
24 27 26 27 27 22 18 14 10 12 11 10 9 9 8 6 3 4 3 4 8 14 16 16 15 15 14 13 11 12 12 15 14 18 20 18 19 19 19 20 17 17 21
22 26 28 28 28 22 20 16 12 13 13 13 13 10 9 6 6 4 6 7 8 15 18 16 16 15 14 10 8 11 15 13 16 15 20 18 19 20 19 19 19 20 21
26 28 31 30 29 26 22 18 15 14 12 13 14 12 10 7 8 6 9 8 7 13 16 15 14 13 12 11 5 1 3 6 13 16 15 12 15 18 20 20 18 20 21
32 33 34 31 30 27 25 21 17 13 11 9 8 13 11 10 9 7 9 10 9 13 18 17 16 14 12 10 15 5 2 3 3 7 14 16 12 14 16 17 20 20 20
28 32 35 31 31 28 27 24 21 18 15 14 10 11 10 10 11 9 10 10 11 11 16 16 16 17 13 9 7 14 11 6 3 3 2 9 14 14 15 16 19 19 19
28 32 36 31 31 28 26 25 25 20 16 11 12 14 15 15 13 11 13 13 13 13 14 16 17 16 15 11 9 9 12 9 6 2 3 4 6 10 16 18 18 19 20
25 27 30 31 34 30 27 27 26 23 19 17 14 12 12 13 16 14 14 15 14 15 16 16 17 17 17 15 14 14 11 6 6 6 4 7 9 8 9 12 21 22 20
Wind_Direction
164 152 144 129 116 109 103 102 107 107 106 109 115 120 117 117 123 124 119 114 121 116 113 108 108 108 108 110 119 123 120 121 120 119 114 112 108 108 106 106 108 110 113
159 156 148 139 127 117 109 111 110 104 105 107 113 113 110 115 115 115 117 114 114 114 108 107 106 105 108 115 118 121 123 123 122 122 120 118 115 114 113 112 115 115 116
160 159 160 150 136 125 113 116 110 112 112 110 109 108 105 106 108 113 114 115 120 111 113 112 110 112 113 117 122 125 125 125 123 121 125 122 120 120 120 119 119 117 114
157 160 157 153 140 130 126 121 119 116 114 112 110 109 110 110 108 109 110 117 120 117 111 108 109 113 118 121 125 127 128 124 122 128 132 128 128 126 126 126 125 122 121
158 159 155 150 141 131 130 125 121 112 111 114 120 116 116 122 121 121 117 118 115 118 116 114 114 116 122 128 136 139 134 127 114 127 137 137 134 136 133 130 124 124 129
157 156 153 149 146 138 138 131 124 116 121 125 127 120 119 122 121 125 126 130 127 124 120 115 111 118 130 130 142 147 148 149 138 152 143 144 140 147 141 138 139 139 140
159 159 157 155 151 151 145 137 131 129 126 129 124 126 127 126 122 123 126 125 133 127 126 122 118 122 129 133 138 154 163 170 166 157 157 156 150 153 152 150 150 150 145
163 162 164 160 158 158 149 143 141 147 130 132 138 130 127 127 130 129 132 134 132 135 133 125 128 136 144 147 135 139 159 160 165 161 162 160 158 158 159 152 154 152 152
168 166 168 165 165 165 160 157 153 164 144 153 149 147 146 144 140 133 140 141 155 150 140 132 120 130 154 161 144 128 145 149 161 163 162 165 166 161 156 158 166 161 154
171 172 173 171 174 172 174 175 173 178 168 170 162 162 157 162 165 163 164 162 168 171 164 162 133 123 143 170 172 159 157 164 173 177 176 171 168 169 164 170 171 164 165
171 176 177 178 182 180 187 191 195 197 191 189 188 188 181 188 190 190 190 190 189 187 168 191 185 148 144 171 188 198 199 207 188 176 176 179 177 172 174 178 182 172 169
177 182 179 182 188 194 199 205 211 208 210 213 207 220 231 226 248 215 210 208 198 189 193 202 197 186 168 178 186 209 195 184 186 179 187 187 183 183 190 183 184 183 177
179 185 185 184 193 205 212 220 224 222 223 222 227 239 245 235 257 243 225 203 215 219 215 219 214 205 190 193 192 194 189 169 195 202 191 198 194 191 194 193 193 195 195
198 200 192 193 196 208 225 234 240 244 247 235 243 255 258 252 264 261 256 231 229 233 221 226 237 226 215 218 192 202 205 219 201 199 199 201 203 200 202 204 200 202 202
192 202 210 204 206 218 235 240 250 263 267 259 250 261 257 255 264 291 278 234 233 241 225 222 239 232 227 243 225 213 217 212 220 210 211 203 206 211 206 206 209 209 205
207 207 208 213 219 226 246 239 247 253 245 248 246 253 246 243 267 307 280 227 229 235 223 221 234 237 225 241 234 219 221 221 228 218 223 210 214 217 223 218 213 214 211
210 205 220 215 214 218 215 195 194 209 207 229 237 237 229 256 271 297 271 232 227 217 204 209 222 215 218 232 249 225 220 233 236 238 221 218 220 224 225 222 223 220 216
222 215 212 209 210 211 212 205 212 218 227 239 250 255 254 263 274 294 266 232 221 211 198 191 194 196 209 226 242 252 244 243 247 231 229 222 226 229 229 229 230 229 219
228 217 210 211 216 220 226 222 220 218 235 249 238 269 229 200 5 242 210 217 209 201 200 196 196 201 209 228 242 264 262 250 253 240 236 231 233 239 240 243 243 241 215
220 216 220 215 218 224 223 214 211 226 243 255 261 267 229 208 217 197 218 201 196 192 191 195 200 204 218 225 243 257 263 257 257 250 244 246 242 246 245 246 240 228 222
217 218 217 213 215 217 215 218 226 236 245 253 253 253 248 219 215 234 215 202 200 195 191 195 202 205 214 229 240 262 264 257 245 255 247 254 248 247 249 241 240 235 232
214 214 210 216 215 215 215 217 227 241 256 266 260 245 237 221 206 240 223 213 196 196 193 195 200 210 216 215 184 223 296 261 243 240 240 249 242 256 251 248 243 238 238
208 212 209 213 215 218 220 224 235 245 249 259 240 228 229 233 212 225 222 222 210 201 198 197 204 207 209 210 225 172 226 240 315 228 232 241 246 246 249 248 251 245 243
214 211 211 212 216 223 218 224 230 237 245 246 258 243 234 215 203 206 217 221 216 207 206 202 210 218 229 222 205 223 235 233 186 329 274 245 243 245 240 242 241 241 246
209 209 209 214 215 214 214 222 224 234 247 257 249 250 240 219 214 217 219 222 217 216 210 211 213 219 234 234 201 191 224 233 231 146 288 319 293 246 233 244 248 244 245
203 201 209 215 217 216 220 223 229 234 244 248 244 240 236 236 228 226 222 227 227 225 224 223 227 222 228 237 232 224 232 227 224 199 226 257 255 256 227 239 236 239 244